TimeCST,TemperatureF,Dew PointF,Humidity,Sea Level PressureIn,VisibilityMPH,Wind Direction,Wind SpeedMPH,Gust SpeedMPH,PrecipitationIn,Events,Conditions,WindDirDegrees,DateUTC
12:45 AM,42.8,24.8,49,30.43,5.0,Calm,Calm,-,N/A,,Clear,0,2013-03-07 06:45:00
1:45 AM,39.2,23.0,52,30.42,4.0,SSE,4.6,-,N/A,,Clear,150,2013-03-07 07:45:00
2:45 AM,39.2,26.6,61,29.90,3.0,Calm,Calm,-,N/A,,Clear,0,2013-03-07 08:45:00
3:45 AM,39.2,26.6,61,30.39,3.0,Calm,Calm,-,N/A,,Clear,0,2013-03-07 09:45:00
4:45 AM,39.2,24.8,56,30.39,3.0,Calm,Calm,-,N/A,,Clear,0,2013-03-07 10:45:00
5:45 AM,33.8,24.8,70,29.98,3.0,Calm,Calm,-,N/A,,Clear,0,2013-03-07 11:45:00
6:45 AM,33.8,24.8,70,30.41,4.0,Calm,Calm,-,N/A,,Clear,0,2013-03-07 12:45:00
7:42 AM,35.6,26.6,70,30.44,4.0,Calm,Calm,-,N/A,,Clear,0,2013-03-07 13:42:00
8:44 AM,46.4,28.4,50,30.02,5.0,Calm,Calm,-,N/A,,Clear,0,2013-03-07 14:44:00
9:43 AM,59.0,28.4,31,30.46,6.0,SSE,2.3,-,N/A,,Partly Cloudy,160,2013-03-07 15:43:00
10:46 AM,66.2,23.0,19,30.45,6.0,ESE,6.9,-,N/A,,Partly Cloudy,120,2013-03-07 16:46:00
11:40 AM,66.2,23.0,19,29.92,7.0,South,5.8,-,N/A,,Scattered Clouds,180,2013-03-07 17:40:00
12:45 PM,68.0,23.0,18,30.40,7.0,SE,8.1,-,N/A,,Scattered Clouds,130,2013-03-07 18:45:00
1:47 PM,71.6,21.2,15,30.37,7.0,NE,5.8,-,N/A,,Mostly Cloudy,50,2013-03-07 19:47:00
2:44 PM,69.8,26.6,20,29.84,7.0,SE,16.1,-,N/A,,Mostly Cloudy,130,2013-03-07 20:44:00
3:44 PM,69.8,26.6,20,30.33,7.0,South,13.8,-,N/A,,Mostly Cloudy,190,2013-03-07 21:44:00
4:44 PM,68.0,28.4,23,30.33,7.0,SSW,12.7,-,N/A,,Mostly Cloudy,200,2013-03-07 22:44:00
5:45 PM,68.0,28.4,23,29.89,7.0,SSW,11.5,-,N/A,,Scattered Clouds,200,2013-03-07 23:45:00
6:47 PM,64.4,30.2,28,30.36,7.0,WSW,6.9,-,N/A,,Scattered Clouds,250,2013-03-08 00:47:00
7:44 PM,60.8,30.2,31,30.38,7.0,WNW,3.5,-,N/A,,Partly Cloudy,300,2013-03-08 01:44:00
8:44 PM,57.2,30.2,36,29.94,7.0,NW,3.5,-,N/A,,Clear,310,2013-03-08 02:44:00
9:45 PM,50.0,30.2,47,30.43,7.0,NNE,6.9,-,N/A,,Clear,30,2013-03-08 03:45:00
10:45 PM,50.0,30.2,47,30.43,7.0,NW,3.5,-,N/A,,Clear,310,2013-03-08 04:45:00
11:45 PM,48.2,30.2,50,29.89,7.0,Calm,Calm,-,N/A,,Clear,0,2013-03-08 05:45:00